STARLINK-34674 (65526 NORAD) Tracking and Keplerian Element Data

This shows tracking and keplerian element data for the satellite.

Feedback or suggestion? Click here.




ElementValue
Catalog65526
NameSTARLINK-34674
Epoch Orbit1717
Epoch Day354.13740575
Epoch Year2025
RAAN61.4285
Inclination97.6051
Eccentricity0.0001411
Argument of Perigee87.2132
Mean Anonmoly272.9257
Mean Motion15.05649769
Decay Rate1.57E-05
L11 65526U 25200G 25354.13740575 .00001570 00000+0 11303-3 0 9997
L22 65526 97.6051 61.4285 0001411 87.2132 272.9257 15.05649769 17172



Live tracking and technical data element details for STARLINK-34674 (NORAD 65526). STARLINK-34674 can be tracked NOW for your location showing map with azimuth and elevation plus other details from your city location.







IsCatalogInMostPopularTable: catalog: 65526, numindb: 10
Update: records affected: 1



GetName: 65526 STARLINK-34674

Hit Count: updated at: Tue, 21 Apr 2026 19:40:36 GMT